Simultaneous Nadir Overpasses (SNOs) Predictions

Prediction of SNOs between GOES-14 and AQUA Satellite Orbit:

Table of predicted SNOs for the next 14.0 days since TLE Epoch: 12/23/2023
Index Date Time (GOES-14) GOES-14 Lat,Lon AQUA Lat,Lon Distance(km) Time Diff (sec)
1 12/23/2023 09:21:57 -0.09,-108.62 0.41,-111.02 271.96 80
2 12/25/2023 09:09:22 -0.08,-108.62 -0.36,-107.29 151.44 80
3 12/25/2023 21:27:18 0.08,-108.60 -0.73,-112.27 418.21 80
4 12/27/2023 21:14:43 0.07,-108.59 0.11,-108.55 6.01 80
5 12/29/2023 20:59:26 0.07,-108.59 0.87,-104.81 429.77 80
6 12/30/2023 09:17:14 -0.08,-108.61 0.18,-109.77 131.76 80
7 01/01/2024 09:04:37 -0.07,-108.61 -0.65,-106.04 293.21 80
8 01/01/2024 21:22:32 0.08,-108.59 -0.44,-111.02 275.85 80
9 01/03/2024 21:09:54 0.08,-108.60 0.39,-107.28 149.81 80
10 01/04/2024 09:27:41 -0.08,-108.61 0.69,-112.23 411.45 80
